Lake Guntersville Weather Center

Moon Phase Calendar



Lake Guntersville Water Level
Online Cameras

 


      

Current Conditions in Keel (historical)
5/18/2024 6:27:13 PM

69°F
Feels Like 70
Clouds
Humidity
90%
Pressure
29.77"
Wind
6.4 mph (WSW)
Dew Point
66°F
UV Index
1/10 (Low)
Visibility
6 mi

Hourly Forecast

Date & Time Sat, May 18
6:00 PM
Sat, May 18
7:00 PM
Sat, May 18
8:00 PM
Sat, May 18
9:00 PM
Sat, May 18
10:00 PM
Sat, May 18
11:00 PM
Sun, May 19
12:00 AM
Sun, May 19
1:00 AM
Sun, May 19
2:00 AM
Sun, May 19
3:00 AM
Sun, May 19
4:00 AM
Sun, May 19
5:00 AM
Sun, May 19
6:00 AM
Sun, May 19
7:00 AM
Sun, May 19
8:00 AM
Sun, May 19
9:00 AM
Sun, May 19
10:00 AM
Sun, May 19
11:00 AM
Sun, May 19
12:00 PM
Sun, May 19
1:00 PM
Sun, May 19
2:00 PM
Sun, May 19
3:00 PM
Sun, May 19
4:00 PM
Sun, May 19
5:00 PM
Sun, May 19
6:00 PM
Sun, May 19
7:00 PM
Sun, May 19
8:00 PM
Sun, May 19
9:00 PM
Sun, May 19
10:00 PM
Sun, May 19
11:00 PM
Mon, May 20
12:00 AM
Mon, May 20
1:00 AM
Mon, May 20
2:00 AM
Mon, May 20
3:00 AM
Mon, May 20
4:00 AM
Mon, May 20
5:00 AM
Mon, May 20
6:00 AM
Mon, May 20
7:00 AM
Mon, May 20
8:00 AM
Mon, May 20
9:00 AM
Mon, May 20
10:00 AM
Mon, May 20
11:00 AM
Mon, May 20
12:00 PM
Mon, May 20
1:00 PM
Mon, May 20
2:00 PM
Mon, May 20
3:00 PM
Mon, May 20
4:00 PM
Mon, May 20
5:00 PM
Condition
Rain

Clouds

Clouds

Rain

Clouds

Clouds

Clouds

Clouds

Clouds

Clouds

Clouds

Clouds

Clouds

Clouds

Clouds

Clouds

Clouds

Clouds

Clear

Clouds

Clouds

Clouds

Rain

Rain

Clouds

Rain

Clear

Clouds

Clouds

Clouds

Clouds

Clouds

Clear

Clear

Clear

Clear

Clear

Clear

Clear

Clear

Clouds

Clouds

Clouds

Clouds

Clouds

Clouds

Clouds

Clouds
Temperature 69°F69°F68°F67°F66°F65°F64°F64°F64°F63°F62°F62°F61°F64°F67°F71°F75°F79°F82°F84°F85°F85°F76°F80°F79°F74°F70°F70°F70°F67°F67°F65°F64°F63°F62°F62°F62°F64°F68°F72°F74°F77°F79°F80°F81°F82°F82°F81°F
Feels Like 70°F70°F69°F68°F67°F66°F64°F64°F64°F64°F63°F62°F62°F65°F68°F72°F76°F79°F83°F85°F86°F86°F76°F80°F79°F75°F70°F71°F70°F68°F67°F66°F64°F63°F63°F63°F62°F65°F68°F72°F74°F77°F79°F81°F82°F82°F83°F82°F
Cloudiness 73%74%84%89%95%100%99%99%100%100%100%100%87%76%22%21%14%11%9%13%55%51%68%63%64%54%0%39%63%51%45%40%0%0%1%1%0%0%0%0%30%40%45%48%25%56%64%59%
Visibility 6 mi6 mi6 mi6 mi6 mi6 mi6 mi6 mi6 mi6 mi6 mi6 mi6 mi6 mi6 mi6 mi6 mi6 mi6 mi6 mi6 mi6 mi6 mi6 mi6 mi6 mi6 mi6 mi6 mi6 mi6 mi6 mi6 mi6 mi6 mi6 mi6 mi6 mi6 mi6 mi6 mi6 mi6 mi6 mi6 mi6 mi6 mi6 mi
Precipitation 100%80%80%100%80%80%80%80%0%0%0%0%0%0%0%0%0%0%0%0%0%0%29%32%25%43%0%0%0%0%0%0%0%0%0%0%0%0%0%0%0%0%0%0%0%0%0%0%
Humidity 90%89%92%94%95%96%96%97%97%97%98%98%98%96%91%83%68%59%53%48%44%48%73%60%67%78%84%85%86%90%92%95%97%97%97%96%97%92%83%71%65%60%56%53%51%49%49%49%
Dew Point 66°F66°F65°F65°F65°F63°F62°F63°F62°F62°F61°F61°F60°F62°F64°F65°F64°F63°F63°F62°F61°F63°F66°F64°F67°F67°F64°F65°F65°F64°F64°F64°F62°F62°F61°F61°F60°F62°F62°F61°F61°F61°F61°F61°F61°F61°F61°F60°F
Pressure 29.77"29.77"29.8"29.83"29.83"29.85"29.85"29.85"29.85"29.85"29.88"29.88"29.91"29.91"29.94"29.94"29.94"29.94"29.91"29.91"29.88"29.88"29.91"29.91"29.88"29.91"29.91"29.94"29.94"29.94"29.94"29.94"29.97"30"30"29.97"30"30"30.03"30.03"30.03"30.03"30"30"29.97"29.97"29.94"29.94"
Wind Speed 6.4 mph8 mph5.5 mph3.1 mph2.7 mph2.5 mph2.3 mph2.6 mph2.6 mph2.6 mph2.9 mph3.2 mph3.3 mph3.3 mph3.6 mph4.7 mph5.7 mph5.5 mph5 mph3.9 mph2.7 mph6 mph7.1 mph5.2 mph2.9 mph2 mph0.2 mph1 mph2.1 mph2.5 mph4.2 mph5.2 mph5.3 mph5.1 mph5.3 mph5.9 mph5.7 mph7.1 mph8.4 mph8.9 mph8.3 mph7.6 mph6.1 mph5.6 mph5.5 mph4.7 mph4.2 mph3.1 mph
Wind
Direction
243°
WSW
307°
NW
340°
NNW
72°
ENE
36°
NE
346°
NNW
315°
NW
306°
NW
299°
WNW
317°
NW
326°
NW
327°
NNW
334°
NNW
338°
NNW
348°
NNW

N
18°
NNE
26°
NNE
30°
NNE
31°
NNE
20°
NNE
351°
N
355°
N
11°
N
33°
NNE
37°
NE
297°
WNW
246°
WSW
112°
ESE
118°
ESE
113°
ESE
107°
ESE
113°
ESE
114°
ESE
113°
ESE
119°
ESE
124°
SE
127°
SE
131°
SE
138°
SE
138°
SE
142°
SE
146°
SE
154°
SSE
142°
SE
139°
SE
129°
SE
124°
SE

Daily Forecast

Date High Low Precip. Humidity
Today
May 18

Rain
78 °F
65 °F
100%
77%
Sunday
May 19

Rain
85 °F
61 °F
80%
53%
Monday
May 20

Clouds
82 °F
62 °F
0%
56%
Tuesday
May 21

Clear
85 °F
62 °F
0%
48%
Wednesday
May 22

Clouds
85 °F
63 °F
0%
44%
Thursday
May 23

Rain
82 °F
68 °F
100%
61%
Friday
May 24

Rain
78 °F
66 °F
100%
84%
Saturday
May 25

Rain
85 °F
64 °F
100%
55%
Sunday
May 26

Rain
83 °F
62 °F
100%
67%
Monday
May 27

Rain
86 °F
61 °F
100%
50%
Tuesday
May 28

Rain
81 °F
67 °F
100%
66%
Wednesday
May 29

Rain
82 °F
67 °F
100%
56%
Thursday
May 30

Rain
83 °F
60 °F
100%
41%
Friday
May 31

Rain
84 °F
64 °F
100%
66%
Saturday
Jun 1

Rain
72 °F
61 °F
100%
85%
Sunday
Jun 2

Rain
72 °F
59 °F
100%
70%

Temperature 8-14 Day Outlook



Precipitation 8-14 Day Outlook




Quick Links
Lake Guntersville News
Lake Guntersville Photos
Lake Guntersville Videos




About Us
Contact Us
Site Map
Search Site
Advertise With Us
   
www.LakeGuntersville.info
THE LAKE GUNTERSVILLE WEBSITE

Copyright 2024, Lakes Online
Privacy    |    Legal